Starlink 11605

operational
NORAD ID: 63134 Int'l Des: 2025-043 Owner: SPXS Country: US Constellation: starlink
LEOCIRCULAR

Über Starlink 11605

Beschreibung wird geladen...

Live-Position

3D-Globus wird geladen...

Nächste Überflüge

Höhenverlauf

Altitude vs Time

uPlot chart will show altitude changes over time

Zweizeiliger Elementsatz

1 63134U 25043C 25258.60433467 .00186026 00000-0 14142-2 0 9993
2 63134 42.9999 226.2639 0000849 339.5674 20.5159 15.70954499 31817
Epoch: 15. Sept. 2025 • Age: 11 hours

Aktueller Status

Höhe 356.0 km
Geschwindigkeit 7.70 km/s
Subsatellitenpunkt -0.56°S, 19.46°E
Startdatum 3. März 2025
Alter 0.5 years
Typ internet

Technische Details

Klassifizierung Payload
Masse 960.00 kg
Trockenmasse 910.00 kg
Gesamtmasse 960.00 kg
Länge 0.30 m
Durchmesser 4.10 m
Spannweite 29.00 m
Form Box + pan
Hersteller SPXS
Bus-Typ Starlink V2MD
Phasenstatus In Orbit
Besitzer/Staat SPXS/US

Große Konstellationen

Loading constellations...